Regional Weather Roundup
Issued by NWS Jackson, KY

Home | Current Version | Previous Version | Graphics & Text | Print | Product List | Glossary On
Versions: 1 2 3 4 5 6 7 8 9 10 11 12 13 14 15 16 17 18 19 20 21 22 23 24 25 26 27 28
000
ASUS43 KJKL 190310
RWRJKL

EAST KENTUCKY HOURLY WEATHER ROUNDUP
NATIONAL WEATHER SERVICE JACKSON KY
1000 PM EST WED JAN 18 2017

NOTE: "FAIR" INDICATES FEW OR NO CLOUDS BELOW 12,000 FEET WITH
NO SIGNIFICANT WEATHER AND/OR OBSTRUCTIONS TO VISIBILITY.

* THESE REPORTS ARE NOT UNDER NWS QUALITY CONTROL AND MAY NOT
  REPORT WEATHER SUCH AS PRECIPITATION AND FOG.

KYZ079-080-083-085-087-088-110-112-115-119-120-190400
...EASTERN KENTUCKY...

CITY           SKY/WX    TMP DP  RH WIND       PRES   REMARKS
JACKSON        CLOUDY    40  36  86 N3        30.14R
LONDON         CLOUDY    39  36  89 CALM      30.13S
SOMERSET*      PTCLDY    37  37 100 CALM      30.15S
MONTICELLO*    CLOUDY    39  38  96 CALM      30.15F
WILLIAMSBURG*  CLOUDY    39  39 100 CALM      30.13F
MIDDLESBORO*   CLOUDY    41  39  95 CALM      30.15R
HARLAN APT*    CLOUDY    39  36  87 CALM      30.14R
PIKE CO APT*     N/A     40  38  94 CALM      30.14S
BIG SANDY APT* CLOUDY    42  38  85 CALM      30.14F
MOREHEAD APT*  CLOUDY    43  36  75 CALM      30.17S
ASHLAND*       CLOUDY    43  37  81 W3        30.15F
$$

KYZ035-036-041-042-044-050-067-078-099-190400
...CENTRAL KENTUCKY...

CITY           SKY/WX    TMP DP  RH WIND       PRES   REMARKS
MT STERLING*   CLOUDY    37  36  93 CALM      30.16F
FLEMING/MASON* CLOUDY    40  37  90 W5        30.16F
DANVILLE*      CLOUDY    36  34  93 CALM      30.15S
LEXINGTON      PTCLDY    37  34  89 NE5       30.14F WCI  33
FRANKFORT      PTCLDY    35  32  88 CALM      30.13F
LOUISVILLE     CLOUDY    42  35  76 E3        30.14F
LEBANON*         N/A     39  36  87 E3        30.14S
GLASGOW*       CLOUDY    41  41 100 CALM      30.12F
BOWLING GREEN  CLOUDY    44  38  79 CALM      30.13F
$$

KYZ091>093-OHZ055-061-077-WVZ005-015-034-035-042-190400
...SOUTHERN OHIO/WEST VIRGINIA...

CITY           SKY/WX    TMP DP  RH WIND       PRES   REMARKS
COVINGTON      CLOUDY    39  36  89 SW3       30.13F
COLUMBUS       CLOUDY    40  35  83 SW10      30.15R WCI  33
DAYTON         CLOUDY    37  36  96 SW10      30.14S WCI  30
WILMINGTON     CLOUDY    38  36  92 SW8       30.14S WCI  32
HUNTINGTON     CLOUDY    44  36  73 CALM      30.15F
CHARLESTON     CLOUDY    43  36  76 CALM      30.16R
PINEVILLE*     CLOUDY    41  36  81 MISG      30.17F
BECKLEY        CLOUDY    39  35  86 CALM      30.12R
BLUEFIELD      CLOUDY    35  32  88 CALM      30.10F
LOGAN CO APT*  CLOUDY    41  37  87 CALM      30.13S
$$

VAZ002-007-008-TNZ017-027-036-066-071-190400
...SOUTHWEST VIRGINIA/EAST TENNESSEE...

CITY           SKY/WX    TMP DP  RH WIND       PRES   REMARKS
WISE*          CLOUDY    37  37 100 CALM      30.12R
JONESVILLE*      N/A     37  37 100 CALM      30.16R
ABINGDON*      CLOUDY    41  38  89 CALM      30.12R
BRISTOL        CLOUDY    41  36  82 CALM      30.13R
MORRISTOWN*    CLEAR     45  39  81 CALM      30.12R
SEVIERVILLE*   CLEAR     43  39  87 CALM      30.13R
KNOXVILLE      CLOUDY    51  42  71 CALM      30.11S
LAFOLLETTE*    CLEAR     45  39  81 CALM      30.16R
OAK RIDGE      PTCLDY    49  43  80 CALM      30.14R
CROSSVILLE     CLOUDY    44  42  93 CALM      30.11F
NASHVILLE      CLOUDY    46  40  79 CALM      30.13S
$$

...KEY TO REMARKS...
VSB - VISIBILITY IN MILES
WCI - WIND CHILL INDEX
HX  - HEAT INDEX

$$




USA.gov is the U.S. government's official web portal to all federal, state and local government web resources and services.